• In Uzbekistan
  • List of Countries
  • For 7 days
  • Water Temperature
  • Satellite Maps
  • Weather Map
  • Weather Widgets
  • user-avatar
    Login

    Hourly Weather Le-Kef

    Today, 17 December, Monday

    Time Temperature Precipitation Wind Pressure Humidity
    00:00 +13°C° 0 mm 2 mps 714 mmHg 57%
    01:00 +13°C° 0 mm 2 mps 714 mmHg 59%
    02:00 +12°C° 0 mm 2 mps 714 mmHg 60%
    03:00 +12°C° 0 mm 2 mps 714 mmHg 62%
    04:00 +11°C° 0 mm 3 mps 714 mmHg 63%
    05:00 +10°C° 0 mm 3 mps 714 mmHg 66%
    06:00 +10°C° 0 mm 4 mps 715 mmHg 68%
    07:00 +10°C° 0 mm 4 mps 715 mmHg 71%
    08:00 +10°C° 0 mm 6 mps 715 mmHg 70%
    09:00 +11°C° 0 mm 7 mps 716 mmHg 69%
    10:00 +12°C° 0 mm 9 mps 716 mmHg 68%
    11:00 +12°C° 0 mm 9 mps 716 mmHg 64%
    12:00 +13°C° 0 mm 10 mps 716 mmHg 61%
    13:00 +13°C° 0 mm 10 mps 716 mmHg 57%
    14:00 +12°C° 0 mm 10 mps 716 mmHg 59%
    15:00 +12°C° 0 mm 10 mps 717 mmHg 61%
    16:00 +11°C° 0 mm 9 mps 717 mmHg 63%
    17:00 +10°C° 0 mm 8 mps 717 mmHg 69%
    18:00 +9°C° 0 mm 6 mps 717 mmHg 74%
    19:00 +8°C° 0 mm 5 mps 718 mmHg 79%
    20:00 +7°C° 0 mm 5 mps 718 mmHg 80%
    21:00 +7°C° 0 mm 5 mps 718 mmHg 82%
    22:00 +7°C° 0 mm 5 mps 719 mmHg 83%
    23:00 +7°C° 0 mm 4 mps 719 mmHg 84%

    Tomorrow, 18 December, Tuesday

    Time Temperature Precipitation Wind Pressure Humidity
    00:00 +6°C° 0 mm 4 mps 719 mmHg 86%
    01:00 +6°C° 0 mm 4 mps 718 mmHg 87%
    02:00 +6°C° 0 mm 4 mps 718 mmHg 88%
    03:00 +7°C° 0 mm 3 mps 718 mmHg 89%
    04:00 +5°C° 0 mm 3 mps 718 mmHg 89%
    05:00 +5°C° 0 mm 3 mps 718 mmHg 89%
    06:00 +5°C° 0 mm 3 mps 718 mmHg 89%
    07:00 +6°C° 0 mm 2 mps 718 mmHg 88%
    08:00 +7°C° 0 mm 2 mps 719 mmHg 81%
    09:00 +8°C° 0 mm 2 mps 719 mmHg 74%
    10:00 +10°C° 0 mm 2 mps 719 mmHg 67%
    11:00 +10°C° 0 mm 2 mps 719 mmHg 62%
    12:00 +12°C° 0 mm 1 mps 718 mmHg 56%
    13:00 +13°C° 0 mm 1 mps 718 mmHg 50%
    14:00 +14°C° 0 mm 1 mps 718 mmHg 48%
    15:00 +14°C° 0 mm 1 mps 718 mmHg 46%
    16:00 +14°C° 0 mm 1 mps 717 mmHg 43%
    17:00 +13°C° 0 mm 1 mps 717 mmHg 48%
    18:00 +11°C° 0 mm 1 mps 717 mmHg 52%
    19:00 +10°C° 0 mm 1 mps 717 mmHg 56%
    20:00 +10°C° 0 mm 1 mps 717 mmHg 57%
    21:00 +9°C° 0 mm 1 mps 717 mmHg 58%
    22:00 +8°C° 0 mm 2 mps 717 mmHg 59%
    23:00 +8°C° 0 mm 2 mps 717 mmHg 59%

    Day after tomorrow, 19 December, Wednesday

    Time Temperature Precipitation Wind Pressure Humidity
    00:00 +7°C° 0 mm 2 mps 716 mmHg 59%
    01:00 +7°C° 0 mm 2 mps 716 mmHg 59%
    02:00 +7°C° 0 mm 2 mps 716 mmHg 59%
    03:00 +7°C° 0 mm 2 mps 715 mmHg 59%
    04:00 +7°C° 0 mm 2 mps 715 mmHg 59%
    05:00 +7°C° 0 mm 2 mps 715 mmHg 59%
    06:00 +7°C° 0 mm 2 mps 715 mmHg 59%
    07:00 +6°C° 0 mm 2 mps 715 mmHg 58%
    08:00 +8°C° 0 mm 2 mps 715 mmHg 54%
    09:00 +10°C° 0 mm 2 mps 716 mmHg 50%
    10:00 +13°C° 0 mm 2 mps 716 mmHg 45%
    11:00 +14°C° 0 mm 2 mps 716 mmHg 41%
    12:00 +16°C° 0 mm 2 mps 715 mmHg 37%
    13:00 +18°C° 0 mm 2 mps 715 mmHg 33%
    14:00 +19°C° 0 mm 1 mps 715 mmHg 35%
    15:00 +19°C° 0 mm 1 mps 715 mmHg 37%
    16:00 +19°C° 0 mm 1 mps 715 mmHg 39%
    17:00 +16°C° 0 mm 1 mps 715 mmHg 43%
    18:00 +14°C° 0 mm 1 mps 715 mmHg 47%
    19:00 +12°C° 0 mm 1 mps 714 mmHg 51%
    20:00 +12°C° 0 mm 1 mps 715 mmHg 52%
    21:00 +11°C° 0 mm 1 mps 715 mmHg 53%
    22:00 +11°C° 0 mm 1 mps 715 mmHg 54%
    23:00 +11°C° 0 mm 1 mps 715 mmHg 55%

    20 December, Thursday

    Time Temperature Precipitation Wind Pressure Humidity
    00:00 +10°C° 0 mm 1 mps 715 mmHg 56%
    01:00 +10°C° 0 mm 1 mps 715 mmHg 57%
    02:00 +10°C° 0 mm 1 mps 715 mmHg 57%
    03:00 +10°C° 0 mm 1 mps 715 mmHg 57%
    04:00 +10°C° 0 mm 1 mps 715 mmHg 58%
    05:00 +10°C° 0 mm 1 mps 715 mmHg 57%
    06:00 +10°C° 0 mm 1 mps 715 mmHg 57%
    07:00 +10°C° 0 mm 1 mps 715 mmHg 57%
    08:00 +11°C° 0 mm 1 mps 716 mmHg 54%
    09:00 +13°C° 0 mm 1 mps 717 mmHg 51%
    10:00 +14°C° 0 mm 1 mps 717 mmHg 49%
    11:00 +15°C° 0 mm 1 mps 717 mmHg 48%
    12:00 +16°C° 0 mm 2 mps 717 mmHg 48%
    13:00 +16°C° 0 mm 2 mps 717 mmHg 48%
    14:00 +16°C° 0 mm 3 mps 717 mmHg 51%
    15:00 +16°C° 0 mm 3 mps 717 mmHg 55%
    16:00 +14°C° 0 mm 3 mps 717 mmHg 58%
    17:00 +13°C° 0 mm 3 mps 717 mmHg 67%
    18:00 +13°C° 0 mm 2 mps 717 mmHg 76%
    19:00 +11°C° 0 mm 1 mps 717 mmHg 85%
    20:00 +11°C° 0 mm 1 mps 718 mmHg 87%
    21:00 +10°C° 0 mm 1 mps 718 mmHg 89%
    22:00 +10°C° 0 mm 1 mps 718 mmHg 91%
    23:00 +9°C° 0 mm 1 mps 718 mmHg 91%

    21 December, Friday

    Time Temperature Precipitation Wind Pressure Humidity
    00:00 +9°C° 0 mm 1 mps 718 mmHg 91%
    01:00 +9°C° 0 mm 1 mps 718 mmHg 91%
    02:00 +9°C° 0 mm 1 mps 718 mmHg 91%
    03:00 +8°C° 0 mm 1 mps 718 mmHg 91%
    04:00 +7°C° 0 mm 0 mps 718 mmHg 91%
    05:00 +7°C° 0 mm 0 mps 718 mmHg 90%
    06:00 +8°C° 0 mm 1 mps 719 mmHg 90%
    07:00 +7°C° 0 mm 1 mps 719 mmHg 89%
    08:00 +9°C° 0 mm 1 mps 719 mmHg 83%
    09:00 +10°C° 0 mm 1 mps 720 mmHg 76%
    10:00 +11°C° 0 mm 1 mps 720 mmHg 69%
    11:00 +13°C° 0 mm 1 mps 720 mmHg 63%
    12:00 +14°C° 0 mm 1 mps 720 mmHg 57%
    13:00 +15°C° 0 mm 2 mps 720 mmHg 51%
    14:00 +15°C° 0 mm 2 mps 720 mmHg 50%
    15:00 +15°C° 0 mm 2 mps 720 mmHg 50%
    16:00 +15°C° 0 mm 1 mps 719 mmHg 49%
    17:00 +13°C° 0 mm 1 mps 720 mmHg 54%
    18:00 +12°C° 0 mm 1 mps 720 mmHg 59%
    19:00 +10°C° 0 mm 1 mps 720 mmHg 65%
    20:00 +10°C° 0 mm 1 mps 720 mmHg 66%
    21:00 +10°C° 0 mm 1 mps 720 mmHg 68%
    22:00 +9°C° 0 mm 1 mps 720 mmHg 69%
    23:00 +9°C° 0 mm 1 mps 720 mmHg 70%

    22 December, Saturday

    Time Temperature Precipitation Wind Pressure Humidity
    00:00 +9°C° 0 mm 1 mps 720 mmHg 71%
    01:00 +8°C° 0 mm 1 mps 719 mmHg 71%
    02:00 +8°C° 0 mm 1 mps 719 mmHg 72%
    03:00 +8°C° 0 mm 1 mps 719 mmHg 72%
    04:00 +8°C° 0 mm 1 mps 719 mmHg 73%
    05:00 +8°C° 0 mm 1 mps 719 mmHg 74%
    06:00 +8°C° 0 mm 1 mps 719 mmHg 74%
    07:00 +8°C° 0 mm 1 mps 719 mmHg 75%
    08:00 +9°C° 0 mm 1 mps 720 mmHg 69%
    09:00 +10°C° 0 mm 2 mps 720 mmHg 63%
    10:00 +13°C° 0 mm 2 mps 721 mmHg 56%
    11:00 +14°C° 0 mm 2 mps 720 mmHg 51%
    12:00 +15°C° 0 mm 2 mps 720 mmHg 45%
    13:00 +16°C° 0 mm 2 mps 720 mmHg 39%
    14:00 +16°C° 0 mm 2 mps 720 mmHg 39%
    15:00 +16°C° 0 mm 2 mps 720 mmHg 40%
    16:00 +18°C° 0 mm 1 mps 720 mmHg 40%
    17:00 +15°C° 0 mm 1 mps 720 mmHg 45%
    18:00 +13°C° 0 mm 1 mps 720 mmHg 50%
    19:00 +10°C° 0 mm 0 mps 720 mmHg 55%
    20:00 +10°C° 0 mm 0 mps 720 mmHg 56%
    21:00 +11°C° 0 mm 1 mps 720 mmHg 57%
    22:00 +10°C° 0 mm 1 mps 720 mmHg 58%
    23:00 +10°C° 0 mm 1 mps 720 mmHg 59%
    Show more